Location: Gniazdowice
(50.2124°N, 20.2673°E)
Time: 02:19:15
(UTC+00:00)

Cosmos 2322 - Pass Details

Date: 23 May 2024
Orbit: 840 x 854 km, 71.0° (Epoch: 18 June)

Event Time Altitude Azimuth Distance (km) Brightness Sun altitude
Rises 01:37:25 0° 331° (NNW) 3,432 7.1 -8.6°
Reaches altitude 10° 01:39:54 10° 334° (NNW) 2,491 6.4 -8.3°
Maximum altitude 01:45:37 71° 58° (ENE) 901 4.1 -7.7°
Drops below altitude 10° 01:51:17 10° 143° (SE) 2,466 6.1 -7.1°
Sets 01:53:43 0° 145° (SE) 3,395 6.7 -6.8°
